Asagi Kemhas, Turkey

4:53 PM +03 on August 23, 2017 (GMT +0300)
Kars | | Change Station

Elev 5886 ft 40.56 °N, 43.12 °E | Updated 1 hour ago

Clear
Clear
86 °F
Feels Like 86 °F
N
5
Wind Variable Wind from SSW

Today
High -- | Low -- °F
--% Chance of Precip.
Yesterday
High -- | Low -- °F
Precip. -- in
Pressure 30.01 in
Visibility 6.2 miles
Clouds Few 4000 ft
Dew Point 36 °F
Humidity 17%
Rainfall 0.00 in
Snow Depth Not available.
5:29 AM 6:56 PM
Waxing Crescent, 4% visible
METAR LTCF 231250Z 21004KT 150V310 9999 FEW040 30/02 Q1016
Pressure 30.01 in
Visibility 6.2 miles
Clouds Few 4000 ft
Dew Point 36 °F
Humidity 17%
Rainfall 0.00 in
Snow Depth Not available.
5:29 AM 6:56 PM
Waxing Crescent, 4% visible
METAR LTCF 231250Z 21004KT 150V310 9999 FEW040 30/02 Q1016

Get Severe Weather Alerts

Thanks for signing up!

Be on the lookout for a verification email in your inbox.

You'll start receiving the daily forecast at 6 AM.

×

10-Day Weather Forecast

×

Almanac

Astronomy

Aug. 23, 2017 Rise Set
Actual Time
Civil Twilight
Nautical Twilight
Astronomical Twilight
Moon
Length of Visible Light
Length of Day
Tomorrow will be .
, % of the Moon is Illuminated

Today's Extremes

Country Highs Country Lows

Community

WunderPhotos

Category 6

Welcome to Category 6. This is the collective home for Weather Underground's featured writeups by Dr. Jeff Masters (right), Bob Henson (left), Chris Burt, and other regular contributors.

Nearby

Air Quality

  Air Quality AQ Index Pollutant
Not available.

Snow Depth

Station Depth Elevation

Earthquake Activity

City Distance Mag. Time & Date
Minimum magnitude displayed is 2.5.

Coastal Water Temperatures

Place Temperature

Stations

Nearby Weather Stations

Station Location Temp. Windchill Dew Point Humidity Wind Precip. Elev Updated Type